Total_Precipitation_Accumulation
2.22 2.23 2.18 2.10 2.03 2.02 2.06 2.01 1.85 1.73 1.60 1.52 1.44 1.45 1.46 1.43 1.48 1.59 1.60 1.69 1.79 1.81 1.76 1.74 1.75 1.86 2.00 2.06 2.17 2.28 2.52 2.81 2.92 2.64 2.35 2.20 2.27 2.34 2.40 2.39 2.29 2.16 2.06
1.98 2.03 2.09 1.91 1.78 1.75 1.75 1.72 1.60 1.56 1.52 1.46 1.41 1.40 1.37 1.37 1.38 1.39 1.39 1.45 1.58 1.58 1.56 1.59 1.46 1.54 1.75 1.87 2.02 2.10 2.24 2.45 2.63 2.58 2.36 2.29 2.24 2.28 2.42 2.43 2.22 1.97 1.86
1.52 1.66 1.78 1.62 1.50 1.51 1.48 1.48 1.47 1.41 1.39 1.31 1.28 1.24 1.21 1.27 1.32 1.32 1.32 1.37 1.37 1.39 1.46 1.46 1.46 1.61 1.69 1.82 1.94 1.99 2.14 2.20 2.43 2.42 2.26 2.27 2.28 2.26 2.41 2.33 2.11 2.08 1.69
1.38 1.39 1.45 1.46 1.43 1.38 1.35 1.35 1.33 1.27 1.23 1.16 1.09 1.09 1.12 1.13 1.13 1.16 1.20 1.25 1.31 1.34 1.40 1.42 1.45 1.54 1.65 1.85 1.91 2.02 2.18 2.29 2.40 2.43 2.34 2.33 2.34 2.39 2.49 2.50 2.31 2.11 1.82
1.42 1.42 1.38 1.36 1.31 1.31 1.31 1.28 1.20 1.18 1.11 1.08 1.05 1.04 1.05 1.04 0.98 1.02 1.16 1.23 1.35 1.41 1.41 1.38 1.34 1.37 1.51 1.65 1.71 1.95 2.22 2.38 2.40 2.46 2.42 2.39 2.36 2.46 2.34 2.24 2.22 2.10 1.85
1.44 1.45 1.41 1.37 1.31 1.29 1.32 1.31 1.27 1.27 1.23 1.16 1.17 1.12 1.06 0.92 0.98 1.02 1.07 1.23 1.34 1.37 1.45 1.42 1.25 1.23 1.27 1.33 1.39 1.51 1.84 2.11 2.26 2.36 2.35 2.29 2.23 2.27 2.25 2.16 2.20 2.22 2.04
1.40 1.40 1.46 1.41 1.32 1.26 1.24 1.35 1.35 1.37 1.32 1.25 1.20 1.15 1.11 1.05 1.04 0.96 0.97 1.10 1.29 1.38 1.45 1.50 1.32 1.16 1.27 1.30 1.28 1.27 1.40 1.65 1.96 2.20 2.26 2.10 2.15 2.22 2.32 2.29 2.22 2.22 2.14
1.33 1.26 1.31 1.33 1.32 1.27 1.29 1.36 1.39 1.45 1.45 1.32 1.20 1.18 1.22 1.04 0.98 0.93 0.97 1.08 1.27 1.35 1.35 1.38 1.45 1.41 1.26 1.27 1.34 1.41 1.52 1.62 1.70 1.76 1.96 2.05 2.09 2.09 2.10 2.12 2.20 2.24 2.10
1.22 1.19 1.13 1.11 1.14 1.19 1.20 1.30 1.45 1.50 1.44 1.27 1.17 1.19 1.17 0.99 0.90 0.86 0.88 1.01 1.19 1.25 1.18 1.14 1.19 1.23 1.17 1.21 1.38 1.62 1.77 1.91 1.72 1.69 1.77 1.95 2.00 1.87 1.77 1.91 2.19 2.33 2.16
1.09 1.03 1.05 1.10 1.10 1.11 1.18 1.30 1.31 1.37 1.37 1.24 1.13 1.11 1.05 0.94 0.86 0.78 0.79 0.85 1.00 1.06 1.12 1.10 1.13 1.13 1.11 1.19 1.38 1.74 1.95 2.02 1.80 1.67 1.78 1.94 1.89 1.83 1.84 1.95 2.20 2.25 2.14
0.94 0.92 0.98 1.00 1.03 1.04 1.18 1.23 1.23 1.20 1.27 1.27 1.19 1.10 1.01 0.87 0.76 0.72 0.70 0.71 0.82 0.95 1.03 1.09 1.13 1.12 1.07 1.16 1.38 1.63 1.86 1.91 1.84 1.80 1.86 1.92 1.96 1.98 1.91 1.92 2.04 2.06 2.08
0.86 0.85 0.85 0.84 0.79 0.82 1.10 1.23 1.22 1.27 1.23 1.16 1.19 1.13 0.98 0.86 0.69 0.57 0.55 0.60 0.70 0.95 1.07 1.07 1.10 1.12 1.10 1.22 1.33 1.61 1.89 2.04 1.92 1.79 1.74 1.75 1.74 1.76 1.74 1.67 1.69 1.72 1.75
0.82 0.86 0.82 0.77 0.80 0.79 0.89 0.99 1.05 1.14 1.09 0.99 0.99 0.99 0.88 0.75 0.63 0.50 0.45 0.48 0.60 0.75 0.93 1.07 1.06 1.02 1.16 1.43 1.59 1.75 1.97 2.12 2.00 1.77 1.67 1.57 1.52 1.52 1.49 1.53 1.53 1.53 1.46
0.86 0.91 0.89 0.84 0.83 0.80 0.80 0.79 0.75 0.79 0.84 0.91 0.91 0.89 0.84 0.77 0.59 0.46 0.44 0.48 0.55 0.64 0.78 0.99 1.13 1.20 1.36 1.65 1.88 1.99 2.05 2.02 1.85 1.67 1.56 1.50 1.43 1.42 1.44 1.42 1.48 1.49 1.53
0.93 0.88 0.86 0.81 0.76 0.76 0.72 0.70 0.64 0.63 0.69 0.74 0.77 0.80 0.78 0.68 0.54 0.49 0.45 0.45 0.52 0.61 0.75 0.95 1.14 1.25 1.46 1.69 1.83 1.85 1.85 1.80 1.74 1.61 1.50 1.45 1.43 1.41 1.41 1.41 1.44 1.40 1.44
0.87 0.85 0.78 0.75 0.71 0.64 0.61 0.57 0.51 0.47 0.50 0.53 0.54 0.54 0.53 0.54 0.55 0.50 0.46 0.50 0.58 0.69 0.80 1.04 1.23 1.33 1.50 1.63 1.74 1.71 1.65 1.62 1.59 1.54 1.50 1.42 1.38 1.38 1.42 1.41 1.38 1.36 1.38
0.75 0.78 0.72 0.61 0.60 0.60 0.60 0.65 0.60 0.47 0.41 0.42 0.43 0.43 0.42 0.44 0.45 0.46 0.47 0.53 0.60 0.69 0.84 1.08 1.30 1.42 1.53 1.57 1.59 1.57 1.53 1.48 1.41 1.40 1.39 1.35 1.32 1.33 1.35 1.34 1.30 1.28 1.27
0.66 0.68 0.67 0.59 0.58 0.58 0.53 0.51 0.55 0.60 0.58 0.52 0.44 0.40 0.40 0.41 0.45 0.47 0.47 0.54 0.65 0.73 0.90 1.09 1.29 1.37 1.42 1.47 1.46 1.44 1.42 1.38 1.33 1.33 1.39 1.34 1.26 1.22 1.18 1.17 1.17 1.14 1.12
0.65 0.63 0.62 0.61 0.60 0.60 0.56 0.46 0.43 0.47 0.55 0.58 0.54 0.45 0.44 0.45 0.51 0.58 0.61 0.64 0.73 0.79 0.89 1.00 1.10 1.20 1.28 1.34 1.34 1.32 1.31 1.27 1.22 1.21 1.24 1.25 1.20 1.12 1.05 1.00 0.99 0.92 0.90
0.70 0.71 0.67 0.64 0.60 0.59 0.59 0.51 0.46 0.44 0.49 0.54 0.56 0.50 0.48 0.57 0.67 0.70 0.70 0.67 0.72 0.81 0.87 0.93 0.96 0.98 1.06 1.14 1.13 1.09 1.11 1.09 1.07 1.08 1.07 1.10 1.13 1.08 0.99 0.92 0.89 0.88 0.91
0.68 0.67 0.66 0.64 0.67 0.67 0.65 0.60 0.51 0.48 0.50 0.56 0.53 0.49 0.58 0.63 0.75 0.76 0.74 0.72 0.75 0.77 0.77 0.80 0.83 0.85 0.84 0.86 0.92 0.93 0.97 1.04 1.06 1.04 1.02 1.01 0.99 0.95 0.89 0.85 0.85 0.83 0.80
0.76 0.74 0.68 0.63 0.66 0.69 0.69 0.67 0.59 0.53 0.53 0.57 0.54 0.51 0.61 0.64 0.71 0.73 0.73 0.75 0.77 0.81 0.80 0.77 0.74 0.74 0.76 0.78 0.83 0.88 0.93 0.96 0.98 1.00 0.98 0.94 0.93 0.88 0.83 0.81 0.82 0.82 0.78
0.76 0.73 0.71 0.70 0.68 0.65 0.61 0.58 0.59 0.58 0.58 0.57 0.53 0.53 0.56 0.63 0.71 0.77 0.79 0.78 0.78 0.77 0.74 0.73 0.75 0.76 0.73 0.70 0.71 0.77 0.80 0.82 0.88 0.95 0.96 0.88 0.83 0.81 0.76 0.75 0.77 0.80 0.78
0.73 0.68 0.63 0.67 0.68 0.64 0.62 0.61 0.61 0.61 0.59 0.60 0.59 0.56 0.57 0.59 0.64 0.72 0.80 0.82 0.81 0.80 0.76 0.75 0.76 0.74 0.70 0.68 0.69 0.70 0.68 0.68 0.69 0.73 0.76 0.74 0.70 0.68 0.67 0.67 0.67 0.68 0.71
0.67 0.73 0.69 0.68 0.65 0.61 0.63 0.64 0.62 0.64 0.67 0.65 0.61 0.57 0.55 0.54 0.60 0.65 0.71 0.78 0.81 0.84 0.85 0.86 0.85 0.79 0.71 0.64 0.64 0.65 0.74 0.75 0.69 0.64 0.66 0.65 0.60 0.60 0.62 0.63 0.62 0.62 0.64
0.54 0.64 0.72 0.72 0.69 0.64 0.65 0.64 0.60 0.61 0.65 0.68 0.62 0.54 0.49 0.49 0.53 0.54 0.58 0.64 0.72 0.81 0.86 0.90 0.91 0.83 0.72 0.65 0.64 0.67 0.66 0.57 0.53 0.56 0.64 0.64 0.58 0.56 0.58 0.60 0.58 0.57 0.60